Location: Beetenbrück
(52.8113°N, 9.5946°E)
Time: 21:31:25
(UTC+00:00)

Cosmos 1943 Rocket - Pass Details

Date: 14 April 2026
Orbit: 809 x 844 km, 71.0° (Epoch: 12 May)

Event Time Altitude Azimuth Distance (km) Brightness Sun altitude
Rises 20:46:24 0° 322° (NW) 3,414 7.0 -19.3°
Reaches altitude 10° 20:49:13 10° 311° (NW) 2,474 5.8 -19.6°
Maximum altitude 20:53:48 26° 256° (WSW) 1,604 3.9 -20.0°
Enters shadow 20:57:57 12° 205° (SSW) 2,326 4.2 -20.4°
